User: anonymous   Login
Location: Brno
(49.2000°N, 16.6330°E)
Time: 19:36:23
(UTC+02:00)
Language:

RESURS DK-1 - Orbit

View from above orbital plane
View from above orbital plane
View from above satellite
View from above satellite

Ground track
Ground track

The orbit data is extracted from the following two-line orbital elements,

1 29228U 06021A   18113.46584544  .00000130  00000-0  17242-4 0  9990
2 29228  69.9372  28.5656 0007285 243.0239 117.0178 15.02309345654695
Epoch (UTC): 23 April 2018 11:10:49
Eccentricity: 0.0007285
inclination: 69.9372°
perigee height: 555 km
apogee height: 565 km
right ascension of ascending node: 28.5656°
argument of perigee: 243.0239°
revolutions per day: 15.02309345
mean anomaly at epoch: 117.0178°
orbit number at epoch: 65469

The dashed part of the orbit path shows where the satellite is in the earth's shadow,  

DLR